Home   Weather   Strathcona County   Past weeks

Flag for Canada Past Weather in Strathcona County, Alberta, Canada — Yesterday and Last 2 Weeks

Now
59 °F

Refreshingly cool.


Feels Like: 60 °F
Forecast: 34 / 60 °F
Wind: 3 mph from West

Location: Edmonton Municipal

Current Time: Sep 25, 2016 at 1:18:45 PM

Latest Report: Sep 25, 2016 at 1:00 PM


Visibility: N/A

Pressure: 30.23 "Hg (27.73 "Hg at 728m altitude)

Humidity: 35%

Dew Point: 31 °F

Location of Strathcona CountyLocation

Past Weather in Strathcona County — Graph

°F

Strathcona County Temperature Yesterday

Maximum temperature yesterday: 61 °F (at 4:00 PM)
Minimum temperature yesterday: 45 °F (at 1:00 AM)
Average temperature yesterday: 52 °F

High & Low Weather Summary for the Past Weeks

 TemperatureHumidityPressure
High78 °F (Sep 16, 4:00 PM)100% (Sep 20, 7:00 AM)30.38 "Hg (Sep 20, 7:00 AM)
Low35 °F (Sep 25, 7:00 AM)24% (Sep 16, 4:00 PM)29.46 "Hg (Sep 17, 8:00 PM)
Average53 °F65%29.98 "Hg
* Reported Sep 10 12:00 PM — Sep 25 12:00 PM, Strathcona County, Weather by CustomWeather, © 2016

Note: Actual official high and low records may vary slightly from our data, if they occured in-between our weather recording intervals... More about our weather records

Advertising

Strathcona County Weather History for the Previous 24 Hours

Scroll right to see more
 ConditionsComfort  
Time TempWeatherWind HumidityBarometerVisibility
12:00 PM
Sun, Sep 25
56 °FRefreshingly cool.7 mph43%30.25 "HgN/A
11:00 AM55 °FCool.7 mph45%30.26 "HgN/A
10:00 AM49 °FCool.3 mph57%30.27 "HgN/A
9:00 AM41 °FQuite cool.3 mph76%30.28 "HgN/A
8:00 AM36 °FChilly.3 mph83%30.27 "HgN/A
7:00 AM35 °FChilly.5 mph87%30.27 "HgN/A
6:00 AM37 °FChilly.5 mph82%30.26 "HgN/A
5:00 AM36 °FChilly.3 mph79%30.25 "HgN/A
4:00 AM42 °FQuite cool.6 mph66%30.24 "HgN/A
3:00 AM44 °FQuite cool.6 mph64%30.26 "HgN/A
2:00 AM44 °FQuite cool.6 mph62%30.25 "HgN/A
1:00 AM47 °FCool.5 mph56%30.24 "HgN/A
12:00 AM46 °FCool.5 mph56%30.23 "HgN/A
11:00 PM
Sat, Sep 24
46 °FCool.3 mph64%30.21 "HgN/A
10:00 PM50 °FCool.5 mph52%30.18 "HgN/A
9:00 PM49 °FCool.3 mph54%30.16 "HgN/A
8:00 PM54 °FCool.2 mph43%30.14 "HgN/A
7:00 PM58 °FRefreshingly cool.7 mph33%30.12 "HgN/A
6:00 PM60 °FRefreshingly cool.12 mph31%30.11 "HgN/A
5:00 PM60 °FRefreshingly cool.16 mph29%30.10 "HgN/A
4:00 PM61 °FRefreshingly cool.16 mph30%30.09 "HgN/A
3:00 PM60 °FRefreshingly cool.16 mph33%30.10 "HgN/A
2:00 PM59 °FRefreshingly cool.18 mph37%30.09 "HgN/A
1:00 PM58 °FRefreshingly cool.17 mph37%30.10 "HgN/A
Weather by CustomWeather, © 2016

See weather overviewHow to use our weather pages